Year,Month,Day,Hour,Minute,Value (Times are PST for temperature in C)
2015,08,23,00,00,14.00
2015,08,23,00,01,13.90
2015,08,23,00,02,13.90
2015,08,23,00,03,13.90
2015,08,23,00,04,13.90
2015,08,23,00,05,13.80
2015,08,23,00,06,13.80
2015,08,23,00,07,13.80
2015,08,23,00,08,13.80
2015,08,23,00,09,13.80
2015,08,23,00,10,13.80
2015,08,23,00,11,13.70
2015,08,23,00,12,13.70
2015,08,23,00,13,13.70
2015,08,23,00,14,13.70
2015,08,23,00,15,13.70
2015,08,23,00,16,13.70
2015,08,23,00,17,13.70
2015,08,23,00,18,13.70
2015,08,23,00,19,13.70
2015,08,23,00,20,13.70
2015,08,23,00,21,13.60
2015,08,23,00,22,13.60
2015,08,23,00,23,13.60
2015,08,23,00,24,13.60
2015,08,23,00,25,13.60
2015,08,23,00,26,13.50
2015,08,23,00,27,13.50
2015,08,23,00,28,13.40
2015,08,23,00,29,13.40
2015,08,23,00,30,13.40
2015,08,23,00,31,13.40
2015,08,23,00,32,13.40
2015,08,23,00,33,13.30
2015,08,23,00,34,13.30
2015,08,23,00,35,13.30
2015,08,23,00,36,13.30
2015,08,23,00,37,13.30
2015,08,23,00,38,13.30
2015,08,23,00,39,13.30
2015,08,23,00,40,13.30
2015,08,23,00,41,13.30
2015,08,23,00,42,13.30
2015,08,23,00,43,13.30
2015,08,23,00,44,13.30
2015,08,23,00,45,13.30
2015,08,23,00,46,13.30
2015,08,23,00,47,13.30
2015,08,23,00,48,13.30
2015,08,23,00,49,13.30
2015,08,23,00,50,13.30
2015,08,23,00,51,13.30
2015,08,23,00,52,13.30
2015,08,23,00,53,13.30
2015,08,23,00,54,13.20
2015,08,23,00,55,13.20
2015,08,23,00,56,13.20
2015,08,23,00,57,13.20
2015,08,23,00,58,13.20
2015,08,23,00,59,13.20
2015,08,23,01,00,13.20
2015,08,23,01,01,13.20
2015,08,23,01,02,13.20
2015,08,23,01,03,13.20
2015,08,23,01,04,13.20
2015,08,23,01,05,13.20
2015,08,23,01,06,13.20
2015,08,23,01,07,13.20
2015,08,23,01,08,13.10
2015,08,23,01,09,13.10
2015,08,23,01,10,13.10
2015,08,23,01,11,13.10
2015,08,23,01,12,13.10
2015,08,23,01,13,13.10
2015,08,23,01,14,13.10
2015,08,23,01,15,13.00
2015,08,23,01,16,13.00
2015,08,23,01,17,13.00
2015,08,23,01,18,12.90
2015,08,23,01,19,12.90
2015,08,23,01,20,12.90
2015,08,23,01,21,12.90
2015,08,23,01,22,12.90
2015,08,23,01,23,12.90
2015,08,23,01,24,12.90
2015,08,23,01,25,12.90
2015,08,23,01,26,12.90
2015,08,23,01,27,12.80
2015,08,23,01,28,12.80
2015,08,23,01,29,12.80
2015,08,23,01,30,12.80
2015,08,23,01,31,12.80
2015,08,23,01,32,12.80
2015,08,23,01,33,12.80
2015,08,23,01,34,12.80
2015,08,23,01,35,12.80
2015,08,23,01,36,12.80
2015,08,23,01,37,12.80
2015,08,23,01,38,12.80
2015,08,23,01,39,12.80
2015,08,23,01,40,12.80
2015,08,23,01,41,12.80
2015,08,23,01,42,12.80
2015,08,23,01,43,12.80
2015,08,23,01,44,12.80
2015,08,23,01,45,12.80
2015,08,23,01,46,12.80
2015,08,23,01,47,12.80
2015,08,23,01,48,12.80
2015,08,23,01,49,12.80
2015,08,23,01,50,12.80
2015,08,23,01,51,12.80
2015,08,23,01,52,12.80
2015,08,23,01,53,12.80
2015,08,23,01,54,12.80
2015,08,23,01,55,12.80
2015,08,23,01,56,12.80
2015,08,23,01,57,12.80
2015,08,23,01,58,12.80
2015,08,23,01,59,12.80
2015,08,23,02,00,12.80
2015,08,23,02,01,12.80
2015,08,23,02,02,12.80
2015,08,23,02,03,12.80
2015,08,23,02,04,12.80
2015,08,23,02,05,12.80
2015,08,23,02,06,12.80
2015,08,23,02,07,12.80
2015,08,23,02,08,12.70
2015,08,23,02,09,12.70
2015,08,23,02,10,12.70
2015,08,23,02,11,12.70
2015,08,23,02,12,12.70
2015,08,23,02,13,12.70
2015,08,23,02,14,12.70
2015,08,23,02,15,12.70
2015,08,23,02,16,12.70
2015,08,23,02,17,12.60
2015,08,23,02,18,12.60
2015,08,23,02,19,12.60
2015,08,23,02,20,12.60
2015,08,23,02,21,12.60
2015,08,23,02,22,12.60
2015,08,23,02,23,12.60
2015,08,23,02,24,12.50
2015,08,23,02,25,12.50
2015,08,23,02,26,12.50
2015,08,23,02,27,12.50
2015,08,23,02,28,12.50
2015,08,23,02,29,12.50
2015,08,23,02,30,12.50
2015,08,23,02,31,12.40
2015,08,23,02,32,12.40
2015,08,23,02,33,12.40
2015,08,23,02,34,12.40
2015,08,23,02,35,12.40
2015,08,23,02,36,12.40
2015,08,23,02,37,12.30
2015,08,23,02,38,12.30
2015,08,23,02,39,12.30
2015,08,23,02,40,12.30
2015,08,23,02,41,12.30
2015,08,23,02,42,12.30
2015,08,23,02,43,12.30
2015,08,23,02,44,12.30
2015,08,23,02,45,12.30
2015,08,23,02,46,12.30
2015,08,23,02,47,12.40
2015,08,23,02,48,12.40
2015,08,23,02,49,12.40
2015,08,23,02,50,12.40
2015,08,23,02,51,12.40
2015,08,23,02,52,12.40
2015,08,23,02,53,12.40
2015,08,23,02,54,12.40
2015,08,23,02,55,12.40
2015,08,23,02,56,12.40
2015,08,23,02,57,12.40
2015,08,23,02,58,12.40
2015,08,23,02,59,12.40
2015,08,23,03,00,12.30
2015,08,23,03,01,12.30
2015,08,23,03,02,12.30
2015,08,23,03,06,12.30
2015,08,23,03,07,12.20
2015,08,23,03,08,12.20
2015,08,23,03,09,12.20
2015,08,23,03,10,12.20
2015,08,23,03,11,12.20
2015,08,23,03,12,12.20
2015,08,23,03,13,12.20
2015,08,23,03,14,12.20
2015,08,23,03,15,12.20
2015,08,23,03,16,12.20
2015,08,23,03,17,12.20
2015,08,23,03,18,12.10
2015,08,23,03,19,12.10
2015,08,23,03,20,12.10
2015,08,23,03,21,12.10
2015,08,23,03,22,12.10
2015,08,23,03,23,12.10
2015,08,23,03,24,12.10
2015,08,23,03,25,12.10
2015,08,23,03,26,12.00
2015,08,23,03,27,12.00
2015,08,23,03,28,12.00
2015,08,23,03,29,11.90
2015,08,23,03,30,11.90
2015,08,23,03,31,11.90
2015,08,23,03,32,11.90
2015,08,23,03,33,11.90
2015,08,23,03,34,11.90
2015,08,23,03,35,11.90
2015,08,23,03,36,11.90
2015,08,23,03,37,11.80
2015,08,23,03,38,11.80
2015,08,23,03,39,11.80
2015,08,23,03,40,11.80
2015,08,23,03,41,11.80
2015,08,23,03,42,11.80
2015,08,23,03,43,11.80
2015,08,23,03,44,11.80
2015,08,23,03,45,11.80
2015,08,23,03,46,11.80
2015,08,23,03,47,11.80
2015,08,23,03,48,11.80
2015,08,23,03,49,11.80
2015,08,23,03,50,11.90
2015,08,23,03,51,11.90
2015,08,23,03,52,11.90
2015,08,23,03,53,12.00
2015,08,23,03,54,12.00
2015,08,23,03,55,12.10
2015,08,23,03,56,12.10
2015,08,23,03,57,12.20
2015,08,23,03,58,12.20
2015,08,23,03,59,12.30
2015,08,23,04,00,12.30
2015,08,23,04,01,12.30
2015,08,23,04,02,12.40
2015,08,23,04,03,12.50
2015,08,23,04,04,12.50
2015,08,23,04,05,12.60
2015,08,23,04,06,12.70
2015,08,23,04,07,12.80
2015,08,23,04,08,12.80
2015,08,23,04,09,12.90
2015,08,23,04,10,12.90
2015,08,23,04,11,12.90
2015,08,23,04,12,13.00
2015,08,23,04,13,13.00
2015,08,23,04,14,13.00
2015,08,23,04,15,13.10
2015,08,23,04,16,13.10
2015,08,23,04,17,13.10
2015,08,23,04,18,13.20
2015,08,23,04,19,13.20
2015,08,23,04,20,13.30
2015,08,23,04,21,13.30
2015,08,23,04,22,13.40
2015,08,23,04,23,13.50
2015,08,23,04,24,13.60
2015,08,23,04,25,13.70
2015,08,23,04,26,13.70
2015,08,23,04,27,13.80
2015,08,23,04,28,13.80
2015,08,23,04,29,13.90
2015,08,23,04,30,14.00
2015,08,23,04,31,14.10
2015,08,23,04,32,14.10
2015,08,23,04,33,14.20
2015,08,23,04,34,14.30
2015,08,23,04,35,14.40
2015,08,23,04,36,14.40
2015,08,23,04,37,14.50
2015,08,23,04,38,14.60
2015,08,23,04,39,14.70
2015,08,23,04,40,14.70
2015,08,23,04,41,14.80
2015,08,23,04,42,14.90
2015,08,23,04,43,15.00
2015,08,23,04,44,15.10
2015,08,23,04,45,15.10
2015,08,23,04,46,15.20
2015,08,23,04,47,15.30
2015,08,23,04,48,15.30
2015,08,23,04,49,15.30
2015,08,23,04,50,15.40
2015,08,23,04,51,15.40
2015,08,23,04,52,15.40
2015,08,23,04,53,15.40
2015,08,23,04,54,15.50
2015,08,23,04,55,15.50
2015,08,23,04,56,15.50
2015,08,23,04,57,15.50
2015,08,23,04,58,15.50
2015,08,23,04,59,15.60
2015,08,23,05,00,15.60
2015,08,23,05,01,15.60
2015,08,23,05,02,15.60
2015,08,23,05,03,15.60
2015,08,23,05,04,15.60
2015,08,23,05,05,15.60
2015,08,23,05,06,15.60
2015,08,23,05,07,15.60
2015,08,23,05,08,15.60
2015,08,23,05,09,15.60
2015,08,23,05,10,15.60
2015,08,23,05,11,15.60
2015,08,23,05,12,15.60
2015,08,23,05,13,15.60
2015,08,23,05,14,15.60
2015,08,23,05,15,15.60
2015,08,23,05,16,15.60
2015,08,23,05,17,15.60
2015,08,23,05,18,15.60
2015,08,23,05,19,15.60
2015,08,23,05,20,15.50
2015,08,23,05,21,15.50
2015,08,23,05,22,15.50
2015,08,23,05,23,15.50
2015,08,23,05,24,15.50
2015,08,23,05,25,15.50
2015,08,23,05,26,15.50
2015,08,23,05,27,15.50
2015,08,23,05,28,15.50
2015,08,23,05,29,15.50
2015,08,23,05,30,15.60
2015,08,23,05,31,15.60
2015,08,23,05,32,15.60
2015,08,23,05,33,15.60
2015,08,23,05,34,15.60
2015,08,23,05,35,15.70
2015,08,23,05,36,15.70
2015,08,23,05,37,15.70
2015,08,23,05,38,15.70
2015,08,23,05,39,15.70
2015,08,23,05,40,15.80
2015,08,23,05,41,15.80
2015,08,23,05,42,15.80
2015,08,23,05,43,15.80
2015,08,23,05,44,15.80
2015,08,23,05,45,15.80
2015,08,23,05,46,15.80
2015,08,23,05,47,15.80
2015,08,23,05,48,15.80
2015,08,23,05,49,15.80
2015,08,23,05,50,15.80
2015,08,23,05,51,15.80
2015,08,23,05,52,15.80
2015,08,23,05,53,15.80
2015,08,23,05,54,15.80
2015,08,23,05,55,15.80
2015,08,23,05,56,15.80
2015,08,23,05,57,15.80
2015,08,23,05,58,15.80
2015,08,23,05,59,15.80
2015,08,23,06,00,15.80
2015,08,23,06,01,15.80
2015,08,23,06,02,15.80
2015,08,23,06,03,15.80
2015,08,23,06,04,15.80
2015,08,23,06,05,15.70
2015,08,23,06,06,15.70
2015,08,23,06,07,15.70
2015,08,23,06,08,15.70
2015,08,23,06,09,15.70
2015,08,23,06,10,15.70
2015,08,23,06,11,15.70
2015,08,23,06,12,15.60
2015,08,23,06,13,15.60
2015,08,23,06,14,15.60
2015,08,23,06,15,15.60
2015,08,23,06,16,15.60
2015,08,23,06,17,15.60
2015,08,23,06,18,15.60
2015,08,23,06,19,15.60
2015,08,23,06,20,15.60
2015,08,23,06,21,15.60
2015,08,23,06,22,15.60
2015,08,23,06,23,15.60
2015,08,23,06,24,15.60
2015,08,23,06,25,15.60
2015,08,23,06,26,15.60
2015,08,23,06,27,15.50
2015,08,23,06,28,15.60
2015,08,23,06,29,15.60
2015,08,23,06,30,15.60
2015,08,23,06,31,15.60
2015,08,23,06,32,15.60
2015,08,23,06,33,15.60
2015,08,23,06,34,15.60
2015,08,23,06,35,15.60
2015,08,23,06,36,15.60
2015,08,23,06,37,15.60
2015,08,23,06,38,15.60
2015,08,23,06,39,15.60
2015,08,23,06,40,15.60
2015,08,23,06,41,15.70
2015,08,23,06,42,15.70
2015,08,23,06,43,15.70
2015,08,23,06,44,15.70
2015,08,23,06,45,15.70
2015,08,23,06,46,15.80
2015,08,23,06,47,15.80
2015,08,23,06,48,15.80
2015,08,23,06,49,15.80
2015,08,23,06,50,15.80
2015,08,23,06,51,15.80
2015,08,23,06,52,15.80
2015,08,23,06,53,15.80
2015,08,23,06,54,15.80
2015,08,23,06,55,15.80
2015,08,23,06,56,15.80
2015,08,23,06,57,15.80
2015,08,23,06,58,15.80
2015,08,23,06,59,15.80
2015,08,23,07,00,15.80
2015,08,23,07,01,15.80
2015,08,23,07,02,15.80
2015,08,23,07,03,15.90
2015,08,23,07,04,15.90
2015,08,23,07,05,15.90
2015,08,23,07,06,15.90
2015,08,23,07,07,15.90
2015,08,23,07,08,15.90
2015,08,23,07,09,15.90
2015,08,23,07,10,16.00
2015,08,23,07,11,16.00
2015,08,23,07,12,16.00
2015,08,23,07,13,16.00
2015,08,23,07,14,16.00
2015,08,23,07,15,16.00
2015,08,23,07,16,16.10
2015,08,23,07,17,16.10
2015,08,23,07,18,16.10
2015,08,23,07,19,16.10
2015,08,23,07,20,16.20
2015,08,23,07,21,16.20
2015,08,23,07,22,16.20
2015,08,23,07,23,16.20
2015,08,23,07,24,16.20
2015,08,23,07,25,16.20
2015,08,23,07,26,16.20
2015,08,23,07,27,16.20
2015,08,23,07,28,16.20
2015,08,23,07,29,16.20
2015,08,23,07,30,16.20
2015,08,23,07,31,16.20
2015,08,23,07,32,16.20
2015,08,23,07,33,16.20
2015,08,23,07,34,16.20
2015,08,23,07,35,16.20
2015,08,23,07,36,16.20
2015,08,23,07,37,16.20
2015,08,23,07,38,16.20
2015,08,23,07,39,16.30
2015,08,23,07,40,16.30
2015,08,23,07,41,16.30
2015,08,23,07,42,16.30
2015,08,23,07,43,16.40
2015,08,23,07,44,16.40
2015,08,23,07,45,16.40
2015,08,23,07,46,16.50
2015,08,23,07,47,16.50
2015,08,23,07,48,16.60
2015,08,23,07,49,16.60
2015,08,23,07,50,16.70
2015,08,23,07,51,16.70
2015,08,23,07,52,16.80
2015,08,23,07,53,16.80
2015,08,23,07,54,16.90
2015,08,23,07,55,17.00
2015,08,23,07,56,17.00
2015,08,23,07,57,17.10
2015,08,23,07,58,17.20
2015,08,23,07,59,17.20
2015,08,23,08,00,17.30
2015,08,23,08,01,17.40
2015,08,23,08,02,17.40
2015,08,23,08,03,17.40
2015,08,23,08,04,17.50
2015,08,23,08,05,17.50
2015,08,23,08,06,17.60
2015,08,23,08,07,17.60
2015,08,23,08,08,17.60
2015,08,23,08,09,17.60
2015,08,23,08,10,17.60
2015,08,23,08,11,17.60
2015,08,23,08,12,17.70
2015,08,23,08,13,17.70
2015,08,23,08,14,17.70
2015,08,23,08,15,17.70
2015,08,23,08,16,17.70
2015,08,23,08,17,17.70
2015,08,23,08,18,17.70
2015,08,23,08,19,17.70
2015,08,23,08,20,17.70
2015,08,23,08,21,17.70
2015,08,23,08,22,17.70
2015,08,23,08,23,17.70
2015,08,23,08,24,17.70
2015,08,23,08,25,17.80
2015,08,23,08,26,17.80
2015,08,23,08,27,17.80
2015,08,23,08,28,17.80
2015,08,23,08,29,17.90
2015,08,23,08,30,17.90
2015,08,23,08,31,17.90
2015,08,23,08,32,17.90
2015,08,23,08,33,17.90
2015,08,23,08,34,18.00
2015,08,23,08,35,18.00
2015,08,23,08,36,18.10
2015,08,23,08,37,18.10
2015,08,23,08,38,18.20
2015,08,23,08,39,18.20
2015,08,23,08,40,18.20
2015,08,23,08,41,18.30
2015,08,23,08,42,18.30
2015,08,23,08,43,18.40
2015,08,23,08,44,18.50
2015,08,23,08,45,18.60
2015,08,23,08,46,18.80
2015,08,23,08,47,18.90
2015,08,23,08,48,19.10
2015,08,23,08,49,19.20
2015,08,23,08,50,19.30
2015,08,23,08,51,19.40
2015,08,23,08,52,19.50
2015,08,23,08,53,19.70
2015,08,23,08,54,19.80
2015,08,23,08,55,19.90
2015,08,23,08,56,20.00
2015,08,23,08,57,20.00
2015,08,23,08,58,20.10
2015,08,23,08,59,20.20
2015,08,23,09,00,20.30
2015,08,23,09,01,20.40
2015,08,23,09,02,20.50
2015,08,23,09,03,20.60
2015,08,23,09,04,20.60
2015,08,23,09,05,20.60
2015,08,23,09,06,20.70
2015,08,23,09,07,20.70
2015,08,23,09,08,20.70
2015,08,23,09,09,20.80
2015,08,23,09,10,20.80
2015,08,23,09,11,20.80
2015,08,23,09,12,20.80
2015,08,23,09,13,20.80
2015,08,23,09,14,20.80
2015,08,23,09,15,20.80
2015,08,23,09,16,20.80
2015,08,23,09,17,20.80
2015,08,23,09,18,20.80
2015,08,23,09,19,20.80
2015,08,23,09,20,20.80
2015,08,23,09,21,20.90
2015,08,23,09,22,21.00
2015,08,23,09,23,21.00
2015,08,23,09,24,21.10
2015,08,23,09,25,21.20
2015,08,23,09,26,21.30
2015,08,23,09,27,21.40
2015,08,23,09,28,21.60
2015,08,23,09,29,21.60
2015,08,23,09,30,21.70
2015,08,23,09,31,21.70
2015,08,23,09,32,21.70
2015,08,23,09,33,21.70
2015,08,23,09,34,21.60
2015,08,23,09,35,21.60
2015,08,23,09,36,21.60
2015,08,23,09,37,21.60
2015,08,23,09,38,21.70
2015,08,23,09,39,21.70
2015,08,23,09,40,21.70
2015,08,23,09,41,21.70
2015,08,23,09,42,21.70
2015,08,23,09,43,21.80
2015,08,23,09,44,21.80
2015,08,23,09,45,21.80
2015,08,23,09,46,21.80
2015,08,23,09,47,21.80
2015,08,23,09,48,21.80
2015,08,23,09,49,21.90
2015,08,23,09,50,21.90
2015,08,23,09,51,21.80
2015,08,23,09,52,21.80
2015,08,23,09,53,21.80
2015,08,23,09,54,21.80
2015,08,23,09,55,21.80
2015,08,23,09,56,21.80
2015,08,23,09,57,21.90
2015,08,23,09,58,21.90
2015,08,23,09,59,22.00
2015,08,23,10,00,22.20
2015,08,23,10,01,22.20
2015,08,23,10,02,22.30
2015,08,23,10,03,22.30
2015,08,23,10,04,22.30
2015,08,23,10,05,22.20
2015,08,23,10,06,22.20
2015,08,23,10,07,22.10
2015,08,23,10,08,21.90
2015,08,23,10,09,21.80
2015,08,23,10,10,21.70
2015,08,23,10,11,21.60
2015,08,23,10,12,21.60
2015,08,23,10,13,21.60
2015,08,23,10,14,21.60
2015,08,23,10,15,21.70
2015,08,23,10,16,21.70
2015,08,23,10,17,21.70
2015,08,23,10,18,21.70
2015,08,23,10,19,21.70
2015,08,23,10,20,21.70
2015,08,23,10,21,21.70
2015,08,23,10,22,21.60
2015,08,23,10,23,21.50
2015,08,23,10,24,21.50
2015,08,23,10,25,21.50
2015,08,23,10,26,21.50
2015,08,23,10,27,21.40
2015,08,23,10,28,21.40
2015,08,23,10,29,21.40
2015,08,23,10,30,21.40
2015,08,23,10,31,21.50
2015,08,23,10,32,21.60
2015,08,23,10,33,21.60
2015,08,23,10,34,21.60
2015,08,23,10,35,21.70
2015,08,23,10,36,21.80
2015,08,23,10,37,21.80
2015,08,23,10,38,21.90
2015,08,23,10,39,21.90
2015,08,23,10,40,21.90
2015,08,23,10,41,21.80
2015,08,23,10,42,21.80
2015,08,23,10,43,21.70
2015,08,23,10,44,21.70
2015,08,23,10,45,21.70
2015,08,23,10,46,21.70
2015,08,23,10,47,21.70
2015,08,23,10,48,21.70
2015,08,23,10,49,21.70
2015,08,23,10,50,21.80
2015,08,23,10,51,21.90
2015,08,23,10,52,22.00
2015,08,23,10,53,22.10
2015,08,23,10,54,22.10
2015,08,23,10,55,22.20
2015,08,23,10,56,22.20
2015,08,23,10,57,22.20
2015,08,23,10,58,22.30
2015,08,23,10,59,22.20
2015,08,23,11,00,22.20
2015,08,23,11,01,22.30
2015,08,23,11,02,22.20
2015,08,23,11,03,22.20
2015,08,23,11,04,22.20
2015,08,23,11,05,22.20
2015,08,23,11,06,22.20
2015,08,23,11,07,22.20
2015,08,23,11,08,22.20
2015,08,23,11,09,22.30
2015,08,23,11,10,22.30
2015,08,23,11,11,22.30
2015,08,23,11,12,22.30
2015,08,23,11,13,22.30
2015,08,23,11,14,22.30
2015,08,23,11,15,22.30
2015,08,23,11,16,22.20
2015,08,23,11,17,22.20
2015,08,23,11,18,22.20
2015,08,23,11,19,22.20
2015,08,23,11,20,22.20
2015,08,23,11,21,22.10
2015,08,23,11,22,22.00
2015,08,23,11,23,22.00
2015,08,23,11,24,21.90
2015,08,23,11,25,21.80
2015,08,23,11,26,21.70
2015,08,23,11,27,21.70
2015,08,23,11,28,21.80
2015,08,23,11,29,21.90
2015,08,23,11,30,22.00
2015,08,23,11,31,22.00
2015,08,23,11,32,22.10
2015,08,23,11,33,22.20
2015,08,23,11,34,22.30
2015,08,23,11,35,22.40
2015,08,23,11,36,22.50
2015,08,23,11,37,22.50
2015,08,23,11,38,22.60
2015,08,23,11,39,22.60
2015,08,23,11,40,22.60
2015,08,23,11,41,22.60
2015,08,23,11,42,22.70
2015,08,23,11,43,22.70
2015,08,23,11,44,22.80
2015,08,23,11,45,22.90
2015,08,23,11,46,23.00
2015,08,23,11,47,23.10
2015,08,23,11,48,23.20
2015,08,23,11,49,23.20
2015,08,23,11,50,23.30
2015,08,23,11,51,23.40
2015,08,23,11,52,23.50
2015,08,23,11,53,23.60
2015,08,23,11,54,23.60
2015,08,23,11,55,23.50
2015,08,23,11,56,23.40
2015,08,23,11,57,23.30
2015,08,23,11,58,23.30
2015,08,23,11,59,23.30
2015,08,23,12,00,23.30
2015,08,23,12,01,23.30
2015,08,23,12,02,23.30
2015,08,23,12,03,23.20
2015,08,23,12,04,23.10
2015,08,23,12,05,23.10
2015,08,23,12,06,23.00
2015,08,23,12,07,23.00
2015,08,23,12,08,22.90
2015,08,23,12,09,22.90
2015,08,23,12,10,22.90
2015,08,23,12,11,22.90
2015,08,23,12,12,23.00
2015,08,23,12,13,23.10
2015,08,23,12,14,23.20
2015,08,23,12,15,23.30
2015,08,23,12,16,23.30
2015,08,23,12,17,23.30
2015,08,23,12,18,23.10
2015,08,23,12,19,23.10
2015,08,23,12,20,23.10
2015,08,23,12,21,23.10
2015,08,23,12,22,23.00
2015,08,23,12,23,23.00
2015,08,23,12,24,23.10
2015,08,23,12,25,23.20
2015,08,23,12,26,23.20
2015,08,23,12,27,23.20
2015,08,23,12,28,23.20
2015,08,23,12,29,23.20
2015,08,23,12,30,23.20
2015,08,23,12,31,23.30
2015,08,23,12,32,23.30
2015,08,23,12,33,23.40
2015,08,23,12,34,23.50
2015,08,23,12,35,23.50
2015,08,23,12,36,23.60
2015,08,23,12,37,23.70
2015,08,23,12,38,23.70
2015,08,23,12,39,23.90
2015,08,23,12,40,23.90
2015,08,23,12,41,24.00
2015,08,23,12,42,24.10
2015,08,23,12,43,24.20
2015,08,23,12,44,24.20
2015,08,23,12,45,24.30
2015,08,23,12,46,24.50
2015,08,23,12,47,24.60
2015,08,23,12,48,24.70
2015,08,23,12,49,24.70
2015,08,23,12,50,24.70
2015,08,23,12,51,24.70
2015,08,23,12,52,24.50
2015,08,23,12,53,24.10
2015,08,23,12,54,23.90
2015,08,23,12,55,23.90
2015,08,23,12,56,23.80
2015,08,23,12,57,23.80
2015,08,23,12,58,23.90
2015,08,23,12,59,24.00
2015,08,23,13,00,24.00
2015,08,23,13,01,24.10
2015,08,23,13,02,24.10
2015,08,23,13,03,24.10
2015,08,23,13,04,24.10
2015,08,23,13,05,24.20
2015,08,23,13,06,24.20
2015,08,23,13,07,24.20
2015,08,23,13,08,24.10
2015,08,23,13,09,24.10
2015,08,23,13,10,24.00
2015,08,23,13,11,23.90
2015,08,23,13,12,23.70
2015,08,23,13,13,23.70
2015,08,23,13,14,23.60
2015,08,23,13,15,23.60
2015,08,23,13,16,23.70
2015,08,23,13,17,23.70
2015,08,23,13,18,23.70
2015,08,23,13,19,23.80
2015,08,23,13,20,23.80
2015,08,23,13,21,23.90
2015,08,23,13,22,23.90
2015,08,23,13,23,23.80
2015,08,23,13,24,23.80
2015,08,23,13,25,23.80
2015,08,23,13,26,23.60
2015,08,23,13,27,23.50
2015,08,23,13,28,23.50
2015,08,23,13,29,23.50
2015,08,23,13,30,23.40
2015,08,23,13,31,23.50
2015,08,23,13,32,23.50
2015,08,23,13,33,23.60
2015,08,23,13,34,23.60
2015,08,23,13,35,23.70
2015,08,23,13,36,23.60
2015,08,23,13,37,23.60
2015,08,23,13,38,23.60
2015,08,23,13,39,23.60
2015,08,23,13,40,23.60
2015,08,23,13,41,23.60
2015,08,23,13,42,23.70
2015,08,23,13,43,23.70
2015,08,23,13,44,23.80
2015,08,23,13,45,23.90
2015,08,23,13,46,23.90
2015,08,23,13,47,24.00
2015,08,23,13,48,24.00
2015,08,23,13,49,24.00
2015,08,23,13,50,24.00
2015,08,23,13,51,24.10
2015,08,23,13,52,24.20
2015,08,23,13,53,24.20
2015,08,23,13,54,24.20
2015,08,23,13,55,24.20
2015,08,23,13,56,24.20
2015,08,23,13,57,24.30
2015,08,23,13,58,24.40
2015,08,23,13,59,24.50
2015,08,23,14,00,24.60
2015,08,23,14,01,24.70
2015,08,23,14,02,24.70
2015,08,23,14,03,24.70
2015,08,23,14,04,24.70
2015,08,23,14,05,24.70
2015,08,23,14,06,24.70
2015,08,23,14,07,24.70
2015,08,23,14,08,24.70
2015,08,23,14,09,24.60
2015,08,23,14,10,24.60
2015,08,23,14,11,24.60
2015,08,23,14,12,24.50
2015,08,23,14,13,24.40
2015,08,23,14,14,24.40
2015,08,23,14,15,24.50
2015,08,23,14,16,24.70
2015,08,23,14,17,24.80
2015,08,23,14,18,25.00
2015,08,23,14,19,25.00
2015,08,23,14,20,25.00
2015,08,23,14,21,24.90
2015,08,23,14,22,24.80
2015,08,23,14,23,24.70
2015,08,23,14,24,24.70
2015,08,23,14,25,24.70
2015,08,23,14,26,24.70
2015,08,23,14,27,24.60
2015,08,23,14,28,24.60
2015,08,23,14,29,24.60
2015,08,23,14,30,24.60
2015,08,23,14,31,24.60
2015,08,23,14,32,24.70
2015,08,23,14,33,24.80
2015,08,23,14,34,25.00
2015,08,23,14,35,25.10
2015,08,23,14,36,25.20
2015,08,23,14,37,25.30
2015,08,23,14,38,25.40
2015,08,23,14,39,25.40
2015,08,23,14,40,25.50
2015,08,23,14,41,25.50
2015,08,23,14,42,25.50
2015,08,23,14,43,25.40
2015,08,23,14,44,25.40
2015,08,23,14,45,25.40
2015,08,23,14,46,25.40
2015,08,23,14,47,25.50
2015,08,23,14,48,25.60
2015,08,23,14,49,25.60
2015,08,23,14,50,25.70
2015,08,23,14,51,25.70
2015,08,23,14,52,25.80
2015,08,23,14,53,25.80
2015,08,23,14,54,25.80
2015,08,23,14,55,25.70
2015,08,23,14,56,25.60
2015,08,23,14,57,25.60
2015,08,23,14,58,25.60
2015,08,23,14,59,25.60
2015,08,23,15,00,25.70
2015,08,23,15,01,25.80
2015,08,23,15,02,25.90
2015,08,23,15,03,25.90
2015,08,23,15,04,25.90
2015,08,23,15,05,26.00
2015,08,23,15,06,26.00
2015,08,23,15,07,26.10
2015,08,23,15,08,26.10
2015,08,23,15,09,26.10
2015,08,23,15,10,25.90
2015,08,23,15,11,25.80
2015,08,23,15,12,25.80
2015,08,23,15,13,25.90
2015,08,23,15,14,26.00
2015,08,23,15,15,26.10
2015,08,23,15,16,26.30
2015,08,23,15,17,26.40
2015,08,23,15,18,26.60
2015,08,23,15,19,26.80
2015,08,23,15,20,27.00
2015,08,23,15,21,27.00
2015,08,23,15,22,27.00
2015,08,23,15,23,27.00
2015,08,23,15,24,27.10
2015,08,23,15,25,27.10
2015,08,23,15,26,27.10
2015,08,23,15,27,27.00
2015,08,23,15,28,27.00
2015,08,23,15,29,26.90
2015,08,23,15,30,26.90
2015,08,23,15,31,27.00
2015,08,23,15,32,27.10
2015,08,23,15,33,27.20
2015,08,23,15,34,27.20
2015,08,23,15,35,27.10
2015,08,23,15,36,26.90
2015,08,23,15,37,26.50
2015,08,23,15,38,26.30
2015,08,23,15,39,26.30
2015,08,23,15,40,26.30
2015,08,23,15,41,26.30
2015,08,23,15,42,26.30
2015,08,23,15,43,26.40
2015,08,23,15,44,26.50
2015,08,23,15,45,26.50
2015,08,23,15,46,26.40
2015,08,23,15,47,26.40
2015,08,23,15,48,26.50
2015,08,23,15,49,26.60
2015,08,23,15,50,26.60
2015,08,23,15,51,26.60
2015,08,23,15,52,26.40
2015,08,23,15,53,26.20
2015,08,23,15,54,26.20
2015,08,23,15,55,26.20
2015,08,23,15,56,26.20
2015,08,23,15,57,26.30
2015,08,23,15,58,26.60
2015,08,23,15,59,26.80
2015,08,23,16,00,26.90
2015,08,23,16,01,26.90
2015,08,23,16,02,26.90
2015,08,23,16,03,26.90
2015,08,23,16,04,26.70
2015,08,23,16,05,26.60
2015,08,23,16,06,26.60
2015,08,23,16,07,26.50
2015,08,23,16,08,26.50
2015,08,23,16,09,26.60
2015,08,23,16,10,26.60
2015,08,23,16,11,26.60
2015,08,23,16,12,26.50
2015,08,23,16,13,26.40
2015,08,23,16,14,26.40
2015,08,23,16,15,26.40
2015,08,23,16,16,26.40
2015,08,23,16,17,26.30
2015,08,23,16,18,26.10
2015,08,23,16,19,26.00
2015,08,23,16,20,25.90
2015,08,23,16,21,25.90
2015,08,23,16,22,25.90
2015,08,23,16,23,25.90
2015,08,23,16,24,25.80
2015,08,23,16,25,25.70
2015,08,23,16,26,25.60
2015,08,23,16,27,25.60
2015,08,23,16,28,25.70
2015,08,23,16,29,25.70
2015,08,23,16,30,25.70
2015,08,23,16,31,25.80
2015,08,23,16,32,25.90
2015,08,23,16,33,26.00
2015,08,23,16,34,26.00
2015,08,23,16,35,26.10
2015,08,23,16,36,26.10
2015,08,23,16,37,26.00
2015,08,23,16,38,25.90
2015,08,23,16,39,25.90
2015,08,23,16,40,25.90
2015,08,23,16,41,25.90
2015,08,23,16,42,25.90
2015,08,23,16,43,26.00
2015,08,23,16,44,26.00
2015,08,23,16,45,25.90
2015,08,23,16,46,25.80
2015,08,23,16,47,25.80
2015,08,23,16,48,25.90
2015,08,23,16,49,26.00
2015,08,23,16,50,26.20
2015,08,23,16,51,26.30
2015,08,23,16,52,26.30
2015,08,23,16,53,26.40
2015,08,23,16,54,26.40
2015,08,23,16,55,26.40
2015,08,23,16,56,26.40
2015,08,23,16,57,26.40
2015,08,23,16,58,26.40
2015,08,23,16,59,26.40
2015,08,23,17,00,26.50
2015,08,23,17,01,26.50
2015,08,23,17,02,26.60
2015,08,23,17,03,26.50
2015,08,23,17,04,26.40
2015,08,23,17,05,26.50
2015,08,23,17,06,26.40
2015,08,23,17,07,26.30
2015,08,23,17,08,26.20
2015,08,23,17,09,26.20
2015,08,23,17,10,26.20
2015,08,23,17,11,26.20
2015,08,23,17,12,26.20
2015,08,23,17,13,26.10
2015,08,23,17,14,26.10
2015,08,23,17,15,26.00
2015,08,23,17,16,25.90
2015,08,23,17,17,25.90
2015,08,23,17,18,25.90
2015,08,23,17,19,25.90
2015,08,23,17,20,25.90
2015,08,23,17,21,26.00
2015,08,23,17,22,26.00